When you browse on this site, cookies collect data to enhance your experience and personalize the content and advertising you see.
Visit our Privacy Policy to learn more. By continuing to use the site, you agree to this use of cookies and data.
  • In United Kingdom
  • List of Countries
  • For 7 days
  • Water Temperature
  • Weather Map
  • Weather Widgets
  • user-avatar
    Login

    Hourly Weather Bahawalpur

    Today, 19 September, Thursday

    Time Temperature Precipitation Wind Pressure Humidity
    00:00 +35°C° 0 mm 2 mps 744 mmHg 27%
    01:00 +34°C° 0 mm 2 mps 744 mmHg 28%
    02:00 +34°C° 0 mm 2 mps 744 mmHg 29%
    03:00 +32°C° 0 mm 2 mps 744 mmHg 29%
    04:00 +31°C° 0 mm 1 mps 744 mmHg 30%
    05:00 +31°C° 0 mm 1 mps 744 mmHg 30%
    06:00 +32°C° 0 mm 1 mps 745 mmHg 28%
    07:00 +34°C° 0 mm 1 mps 745 mmHg 25%
    08:00 +37°C° 0 mm 2 mps 746 mmHg 23%
    09:00 +39°C° 0 mm 2 mps 746 mmHg 20%
    10:00 +41°C° 0 mm 2 mps 745 mmHg 17%
    11:00 +43°C° 0 mm 2 mps 745 mmHg 15%
    12:00 +45°C° 0 mm 2 mps 745 mmHg 13%
    13:00 +46°C° 0 mm 2 mps 744 mmHg 12%
    14:00 +47°C° 0 mm 2 mps 743 mmHg 10%
    15:00 +46°C° 0 mm 3 mps 743 mmHg 10%
    16:00 +46°C° 0 mm 3 mps 743 mmHg 10%
    17:00 +46°C° 0 mm 3 mps 742 mmHg 10%
    18:00 +43°C° 0 mm 3 mps 743 mmHg 12%
    19:00 +40°C° 0 mm 2 mps 743 mmHg 14%
    20:00 +38°C° 0 mm 2 mps 743 mmHg 16%
    21:00 +37°C° 0 mm 2 mps 743 mmHg 17%
    22:00 +36°C° 0 mm 2 mps 743 mmHg 18%
    23:00 +36°C° 0 mm 2 mps 743 mmHg 18%

    Tomorrow, 20 September, Friday

    Time Temperature Precipitation Wind Pressure Humidity
    00:00 +35°C° 0 mm 2 mps 743 mmHg 22%
    01:00 +35°C° 0 mm 3 mps 743 mmHg 25%
    02:00 +35°C° 0 mm 3 mps 743 mmHg 28%
    03:00 +34°C° 0 mm 3 mps 743 mmHg 32%
    04:00 +34°C° 0 mm 3 mps 743 mmHg 35%
    05:00 +34°C° 0 mm 3 mps 743 mmHg 38%
    06:00 +35°C° 0 mm 5 mps 744 mmHg 38%
    07:00 +36°C° 0 mm 6 mps 744 mmHg 38%
    08:00 +38°C° 0 mm 7 mps 745 mmHg 38%
    09:00 +40°C° 0 mm 6 mps 745 mmHg 33%
    10:00 +42°C° 0 mm 6 mps 745 mmHg 28%
    11:00 +45°C° 0 mm 6 mps 745 mmHg 24%
    12:00 +45°C° 0 mm 5 mps 744 mmHg 22%
    13:00 +45°C° 0 mm 4 mps 743 mmHg 19%
    14:00 +45°C° 0 mm 3 mps 742 mmHg 17%
    15:00 +45°C° 0 mm 3 mps 742 mmHg 17%
    16:00 +45°C° 0 mm 3 mps 742 mmHg 17%
    17:00 +44°C° 0 mm 3 mps 742 mmHg 17%
    18:00 +43°C° 0 mm 3 mps 742 mmHg 19%
    19:00 +40°C° 0 mm 3 mps 742 mmHg 21%
    20:00 +38°C° 0 mm 3 mps 742 mmHg 24%
    21:00 +38°C° 0 mm 3 mps 742 mmHg 25%
    22:00 +37°C° 0 mm 3 mps 743 mmHg 27%
    23:00 +37°C° 0 mm 3 mps 743 mmHg 28%

    Day after tomorrow, 21 September, Saturday

    Time Temperature Precipitation Wind Pressure Humidity
    00:00 +36°C° 0 mm 3 mps 743 mmHg 30%
    01:00 +36°C° 0 mm 3 mps 742 mmHg 31%
    02:00 +35°C° 0 mm 3 mps 742 mmHg 33%
    03:00 +35°C° 0 mm 3 mps 742 mmHg 34%
    04:00 +35°C° 0 mm 3 mps 743 mmHg 36%
    05:00 +34°C° 0 mm 3 mps 743 mmHg 37%
    06:00 +35°C° 0 mm 4 mps 743 mmHg 35%
    07:00 +37°C° 0 mm 4 mps 744 mmHg 33%
    08:00 +39°C° 0 mm 5 mps 744 mmHg 31%
    09:00 +41°C° 0 mm 5 mps 744 mmHg 29%
    10:00 +42°C° 0 mm 5 mps 744 mmHg 26%
    11:00 +43°C° 0 mm 4 mps 744 mmHg 23%
    12:00 +44°C° 0 mm 4 mps 743 mmHg 22%
    13:00 +44°C° 0 mm 3 mps 742 mmHg 21%
    14:00 +45°C° 0 mm 2 mps 742 mmHg 19%
    15:00 +45°C° 0 mm 2 mps 741 mmHg 19%
    16:00 +45°C° 0 mm 2 mps 741 mmHg 18%
    17:00 +45°C° 0 mm 3 mps 741 mmHg 18%
    18:00 +43°C° 0 mm 3 mps 741 mmHg 20%
    19:00 +40°C° 0 mm 3 mps 741 mmHg 23%
    20:00 +38°C° 0 mm 3 mps 742 mmHg 26%
    21:00 +38°C° 0 mm 4 mps 742 mmHg 27%
    22:00 +37°C° 0 mm 4 mps 742 mmHg 29%
    23:00 +37°C° 0 mm 4 mps 742 mmHg 31%

    22 September, Sunday

    Time Temperature Precipitation Wind Pressure Humidity
    00:00 +36°C° 0 mm 3 mps 742 mmHg 33%
    01:00 +36°C° 0 mm 3 mps 742 mmHg 35%
    02:00 +35°C° 0 mm 2 mps 742 mmHg 37%
    03:00 +35°C° 0 mm 2 mps 742 mmHg 37%
    04:00 +34°C° 0 mm 2 mps 743 mmHg 38%
    05:00 +34°C° 0 mm 2 mps 743 mmHg 38%
    06:00 +36°C° 0 mm 3 mps 743 mmHg 36%
    07:00 +37°C° 0 mm 3 mps 744 mmHg 34%
    08:00 +40°C° 0 mm 4 mps 745 mmHg 32%
    09:00 +41°C° 0 mm 4 mps 745 mmHg 29%
    10:00 +42°C° 0 mm 4 mps 745 mmHg 27%
    11:00 +44°C° 0 mm 4 mps 745 mmHg 24%
    12:00 +44°C° 0 mm 3 mps 744 mmHg 22%
    13:00 +45°C° 0 mm 3 mps 743 mmHg 21%
    14:00 +45°C° 0 mm 2 mps 742 mmHg 20%
    15:00 +45°C° 0 mm 2 mps 742 mmHg 19%
    16:00 +45°C° 0 mm 2 mps 742 mmHg 19%
    17:00 +45°C° 0 mm 3 mps 742 mmHg 19%
    18:00 +43°C° 0 mm 3 mps 742 mmHg 21%
    19:00 +40°C° 0 mm 3 mps 742 mmHg 23%
    20:00 +39°C° 0 mm 3 mps 743 mmHg 25%
    21:00 +38°C° 0 mm 3 mps 743 mmHg 27%
    22:00 +38°C° 0 mm 3 mps 743 mmHg 28%
    23:00 +37°C° 0 mm 3 mps 743 mmHg 30%

    23 September, Monday

    Time Temperature Precipitation Wind Pressure Humidity
    00:00 +37°C° 0 mm 3 mps 743 mmHg 32%
    01:00 +36°C° 0 mm 3 mps 744 mmHg 35%
    02:00 +36°C° 0 mm 3 mps 744 mmHg 37%
    03:00 +35°C° 0 mm 3 mps 744 mmHg 40%
    04:00 +35°C° 0 mm 4 mps 744 mmHg 43%
    05:00 +35°C° 0 mm 4 mps 744 mmHg 45%
    06:00 +35°C° 0 mm 4 mps 745 mmHg 44%
    07:00 +36°C° 0 mm 5 mps 745 mmHg 42%
    08:00 +37°C° 0 mm 5 mps 746 mmHg 41%
    09:00 +40°C° 0 mm 5 mps 746 mmHg 36%
    10:00 +42°C° 0 mm 4 mps 746 mmHg 31%
    11:00 +43°C° 0 mm 4 mps 746 mmHg 27%
    12:00 +44°C° 0 mm 3 mps 745 mmHg 25%
    13:00 +44°C° 0 mm 3 mps 744 mmHg 23%
    14:00 +45°C° 0 mm 3 mps 743 mmHg 22%
    15:00 +45°C° 0 mm 3 mps 743 mmHg 22%
    16:00 +44°C° 0 mm 4 mps 743 mmHg 22%
    17:00 +45°C° 0 mm 5 mps 742 mmHg 21%
    18:00 +43°C° 0 mm 4 mps 743 mmHg 24%
    19:00 +41°C° 0 mm 4 mps 743 mmHg 27%
    20:00 +38°C° 0 mm 3 mps 743 mmHg 29%
    21:00 +38°C° 0 mm 3 mps 743 mmHg 30%
    22:00 +38°C° 0 mm 3 mps 744 mmHg 32%
    23:00 +37°C° 0 mm 3 mps 744 mmHg 33%

    24 September, Tuesday

    Time Temperature Precipitation Wind Pressure Humidity
    00:00 +37°C° 0 mm 3 mps 744 mmHg 33%
    01:00 +36°C° 0 mm 2 mps 744 mmHg 34%
    02:00 +36°C° 0 mm 2 mps 744 mmHg 35%
    03:00 +35°C° 0 mm 2 mps 744 mmHg 35%
    04:00 +35°C° 0 mm 2 mps 744 mmHg 36%
    05:00 +35°C° 0 mm 2 mps 744 mmHg 37%
    06:00 +36°C° 0 mm 3 mps 745 mmHg 36%
    07:00 +37°C° 0 mm 3 mps 745 mmHg 36%
    08:00 +38°C° 0 mm 4 mps 745 mmHg 35%
    09:00 +41°C° 0 mm 4 mps 745 mmHg 31%
    10:00 +42°C° 0 mm 3 mps 746 mmHg 28%
    11:00 +44°C° 0 mm 3 mps 746 mmHg 24%
    12:00 +44°C° 0 mm 3 mps 745 mmHg 23%
    13:00 +45°C° 0 mm 3 mps 744 mmHg 22%
    14:00 +45°C° 0 mm 3 mps 743 mmHg 21%
    15:00 +45°C° 0 mm 4 mps 743 mmHg 21%
    16:00 +44°C° 0 mm 4 mps 743 mmHg 22%
    17:00 +45°C° 0 mm 5 mps 742 mmHg 22%
    18:00 +43°C° 0 mm 5 mps 743 mmHg 25%
    19:00 +41°C° 0 mm 5 mps 743 mmHg 28%
    20:00 +40°C° 0 mm 5 mps 744 mmHg 31%
    21:00 +38°C° 0 mm 4 mps 744 mmHg 32%
    22:00 +37°C° 0 mm 3 mps 744 mmHg 34%
    23:00 +37°C° 0 mm 3 mps 744 mmHg 35%
    Show more